User: anonymous
Location: Unspecified
(0.0000°N, 0.0000°E)
Time: 23:16:44
(UTC+00:00)
Language:

USA 207 - Orbit

View from above orbital plane
View from above orbital plane
View from above satellite
View from above satellite

Ground track
Ground track

The orbit data is extracted from the following two-line orbital elements,

1 35815U 09047A   14210.11908929 0.00000000  00000-0  00000-0 0    02
2 35815   0.0988  37.0561 0003000 169.5669 190.4535  1.00270000    03
Epoch (UTC): 29 July 2014 02:51:29
Eccentricity: 0.0003000
inclination: 0.0988°
perigee height: 35774 km
apogee height: 35799 km
right ascension of ascending node: 37.0561°
argument of perigee: 169.5669°
revolutions per day: 1.00270000
mean anomaly at epoch: 190.4535°
orbit number at epoch: 0

The dashed part of the orbit path shows where the satellite is in the earth's shadow,  

DLR